Tracking 19651 objects as of 23-Apr-2019
HD Live streaming from Space Station
objects crossing your sky now

NTS 2 AKM

Track NTS 2 AKM now!


NORAD ID: 26376
Int'l Code: 1977-053C
Perigee: 18,917.0 km
Apogee: 20,815.5 km
Inclination: 64.3 °
Period: 704.9 minutes
Semi major axis: 26237 km
RCS: 0.2515 m2 (medium)
Launch date: June 23, 1977
Source: United States (US)
Launch site: AIR FORCE WESTERN TEST RANGE (AFWTR)

Note: This is a ROCKET BODY
aabbcc
Your satellite tracking list
Your tracking list is empty




NASA's NSSDC Master Catalog

Two Line Element Set (TLE):
1 26376U 77053C   19112.41200833 -.00000068  00000-0  00000+0 0  9995
2 26376  64.3336 340.4909 0361787 229.0105  13.2967  2.04279717140766
Source of the keplerian elements: AFSPC